Starlink 11415

operational
NORAD ID: 62592 Int'l Des: 2025-008 Owner: SPXS Country: US Constellation: starlink
LEOCIRCULAR

Starlink 11415について

説明を読み込み中...

リアルタイム位置

3D地球を読み込み中...

次回通過

高度履歴

Altitude vs Time

uPlot chart will show altitude changes over time

軌道要素

1 62592U 25008F 25354.74110090 .00175592 00000-0 13408-2 0 9997
2 62592 42.9995 242.4027 0001390 235.7690 124.3046 15.70883543 54801
Epoch: Dec 20, 2025 • Age: 10 hours

現在のステータス

高度 365.9 km
速度 7.69 km/s
衛星直下点 -37.28°S, 35.37°W
打ち上げ日 Jan 13, 2025
運用期間 0.9 years
タイプ internet

技術仕様

分類 Payload
質量 960.00 kg
乾燥質量 910.00 kg
総質量 960.00 kg
長さ 0.30 m
直径 4.10 m
スパン 29.00 m
形状 Box + pan
製造者 SPXS
バスタイプ Starlink V2MD
フェーズステータス In Orbit
所有者/国 SPXS/US

大規模コンステレーション

Loading constellations...